Time,TemperatureF,DewpointF,PressureIn,WindDirection,WindDirectionDegrees,WindSpeedMPH,WindSpeedGustMPH,Humidity,HourlyPrecipIn,Conditions,Clouds,dailyrainin,SoftwareType,DateUTC
2013-01-25 00:03:00,18.0,8.0,30.41,East,97,4.0,7.0,65,0.00,,,0.01,,2013-01-25 05:03:00,
2013-01-25 00:12:00,18.0,8.0,30.41,East,97,4.0,7.0,65,0.00,,,0.01,,2013-01-25 05:12:00,
2013-01-25 00:22:00,18.0,9.0,30.40,East,90,3.0,8.0,66,0.00,,,0.01,,2013-01-25 05:22:00,
2013-01-25 00:32:00,18.0,9.0,30.40,East,90,3.0,8.0,66,0.00,,,0.01,,2013-01-25 05:32:00,
2013-01-25 00:43:00,18.0,9.0,30.40,East,90,3.0,8.0,66,0.00,,,0.01,,2013-01-25 05:43:00,
2013-01-25 00:52:00,18.0,9.0,30.38,East,98,5.0,10.0,66,0.00,,,0.01,,2013-01-25 05:52:00,
2013-01-25 01:02:00,18.0,9.0,30.37,East,87,5.0,10.0,68,0.00,,,0.01,,2013-01-25 06:02:00,
2013-01-25 01:12:00,18.0,9.0,30.37,East,87,5.0,10.0,68,0.00,,,0.01,,2013-01-25 06:12:00,
2013-01-25 01:22:00,18.0,9.0,30.37,East,87,5.0,10.0,68,0.00,,,0.01,,2013-01-25 06:22:00,
2013-01-25 01:32:00,18.0,10.0,30.36,East,84,4.0,8.0,69,0.00,,,0.01,,2013-01-25 06:32:00,
2013-01-25 01:42:00,18.0,10.0,30.36,East,84,4.0,8.0,69,0.00,,,0.01,,2013-01-25 06:42:00,
2013-01-25 01:52:00,18.0,10.0,30.37,East,90,3.0,7.0,69,0.00,,,0.01,,2013-01-25 06:52:00,
2013-01-25 02:02:00,18.0,10.0,30.36,SE,142,2.0,4.0,70,0.00,,,0.01,,2013-01-25 07:02:00,
2013-01-25 02:11:00,18.0,10.0,30.36,SE,142,2.0,4.0,70,0.00,,,0.01,,2013-01-25 07:11:00,
2013-01-25 02:21:00,18.0,10.0,30.36,SE,142,2.0,4.0,70,0.00,,,0.01,,2013-01-25 07:21:00,
2013-01-25 02:32:00,19.0,10.0,30.36,SE,145,3.0,10.0,68,0.00,,,0.01,,2013-01-25 07:32:00,
2013-01-25 02:42:00,19.0,10.0,30.36,SE,145,3.0,10.0,68,0.00,,,0.01,,2013-01-25 07:42:00,
2013-01-25 02:51:00,19.0,10.0,30.35,SE,139,4.0,8.0,68,0.00,,,0.01,,2013-01-25 07:51:00,
2013-01-25 03:02:00,19.0,11.0,30.33,ESE,113,3.0,10.0,69,0.00,,,0.01,,2013-01-25 08:02:00,
2013-01-25 03:12:00,19.0,11.0,30.33,ESE,113,3.0,10.0,69,0.00,,,0.01,,2013-01-25 08:12:00,
2013-01-25 03:21:00,19.0,10.0,30.32,ESE,104,5.0,11.0,68,0.00,,,0.01,,2013-01-25 08:21:00,
2013-01-25 03:32:00,19.0,11.0,30.31,East,100,5.0,8.0,69,0.00,,,0.01,,2013-01-25 08:32:00,
2013-01-25 03:42:00,19.0,11.0,30.31,East,100,5.0,8.0,69,0.00,,,0.01,,2013-01-25 08:42:00,
2013-01-25 03:52:00,19.0,11.0,30.30,SE,127,6.0,9.0,69,0.00,,,0.01,,2013-01-25 08:52:00,
2013-01-25 04:02:00,19.0,11.0,30.28,ESE,102,5.0,12.0,69,0.00,,,0.01,,2013-01-25 09:02:00,
2013-01-25 04:11:00,19.0,11.0,30.28,ESE,102,5.0,12.0,69,0.00,,,0.01,,2013-01-25 09:11:00,
2013-01-25 04:21:00,19.0,11.0,30.27,ESE,106,4.0,9.0,69,0.00,,,0.01,,2013-01-25 09:21:00,
2013-01-25 04:32:00,19.0,11.0,30.25,ENE,68,5.0,11.0,70,0.00,,,0.01,,2013-01-25 09:32:00,
2013-01-25 04:42:00,19.0,11.0,30.25,ENE,68,5.0,11.0,70,0.00,,,0.01,,2013-01-25 09:42:00,
2013-01-25 04:51:00,19.0,11.0,30.24,South,171,5.0,12.0,69,0.00,,,0.01,,2013-01-25 09:51:00,
2013-01-25 05:02:00,19.0,11.0,30.24,ESE,107,6.0,9.0,69,0.00,,,0.01,,2013-01-25 10:02:00,
2013-01-25 05:12:00,19.0,11.0,30.24,ESE,107,6.0,9.0,69,0.00,,,0.01,,2013-01-25 10:12:00,
2013-01-25 05:21:00,19.0,11.0,30.24,SE,141,4.0,10.0,69,0.00,,,0.01,,2013-01-25 10:21:00,
2013-01-25 05:32:00,19.0,11.0,30.23,ESE,111,3.0,9.0,71,0.00,,,0.01,,2013-01-25 10:32:00,
2013-01-25 05:42:00,19.0,11.0,30.23,ESE,111,3.0,9.0,71,0.00,,,0.01,,2013-01-25 10:42:00,
2013-01-25 05:52:00,19.0,11.0,30.21,SE,132,6.0,10.0,70,0.00,,,0.01,,2013-01-25 10:52:00,
2013-01-25 06:03:00,18.0,11.0,30.19,SSE,164,5.0,11.0,74,0.00,,,0.01,,2013-01-25 11:03:00,
2013-01-25 06:11:00,18.0,11.0,30.19,SSE,164,5.0,11.0,74,0.00,,,0.01,,2013-01-25 11:11:00,
2013-01-25 06:22:00,18.0,12.0,30.18,East,90,7.0,11.0,78,0.00,,,0.01,,2013-01-25 11:22:00,
2013-01-25 06:33:00,18.0,13.0,30.16,ESE,115,6.0,11.0,80,0.00,,,0.01,,2013-01-25 11:33:00,
2013-01-25 06:42:00,18.0,13.0,30.16,ESE,115,6.0,11.0,80,0.00,,,0.01,,2013-01-25 11:42:00,
2013-01-25 06:52:00,18.0,13.0,30.17,ENE,77,5.0,8.0,79,0.00,,,0.01,,2013-01-25 11:52:00,
2013-01-25 07:02:00,18.0,12.0,30.16,East,80,3.0,8.0,76,0.00,,,0.01,,2013-01-25 12:02:00,
2013-01-25 07:12:00,18.0,12.0,30.16,East,80,3.0,8.0,76,0.00,,,0.01,,2013-01-25 12:12:00,
2013-01-25 07:22:00,19.0,12.0,30.16,ESE,119,5.0,8.0,73,0.00,,,0.01,,2013-01-25 12:22:00,
2013-01-25 07:32:00,19.0,12.0,30.15,East,98,4.0,7.0,73,0.00,,,0.01,,2013-01-25 12:32:00,
2013-01-25 07:42:00,19.0,12.0,30.15,East,98,4.0,7.0,73,0.00,,,0.01,,2013-01-25 12:42:00,
2013-01-25 07:53:00,19.0,11.0,30.15,SE,125,3.0,7.0,72,0.00,,,0.01,,2013-01-25 12:53:00,
2013-01-25 08:03:00,19.0,11.0,30.14,SE,133,2.0,4.0,72,0.00,,,0.01,,2013-01-25 13:03:00,
2013-01-25 08:12:00,19.0,11.0,30.14,SE,133,2.0,4.0,72,0.00,,,0.01,,2013-01-25 13:12:00,
2013-01-25 08:22:00,19.0,11.0,30.14,ESE,113,2.0,6.0,71,0.00,,,0.01,,2013-01-25 13:22:00,
2013-01-25 08:32:00,19.0,11.0,30.14,ESE,103,2.0,6.0,72,0.00,,,0.01,,2013-01-25 13:32:00,
2013-01-25 08:43:00,19.0,11.0,30.14,ESE,103,2.0,6.0,72,0.00,,,0.01,,2013-01-25 13:43:00,
2013-01-25 08:52:00,19.0,11.0,30.14,South,183,2.0,5.0,71,0.00,,,0.01,,2013-01-25 13:52:00,
2013-01-25 09:03:00,19.0,13.0,30.14,South,186,5.0,9.0,76,0.00,,,0.01,,2013-01-25 14:03:00,
2013-01-25 09:12:00,19.0,13.0,30.14,South,186,5.0,9.0,76,0.00,,,0.01,,2013-01-25 14:12:00,
2013-01-25 09:23:00,19.0,14.0,30.14,South,186,4.0,7.0,82,0.00,,,0.01,,2013-01-25 14:23:00,
2013-01-25 09:33:00,18.0,14.0,30.13,South,178,4.0,7.0,84,0.00,,,0.01,,2013-01-25 14:33:00,
2013-01-25 09:42:00,18.0,14.0,30.13,South,178,4.0,7.0,84,0.00,,,0.01,,2013-01-25 14:42:00,
2013-01-25 09:52:00,18.0,15.0,30.12,SSE,151,2.0,7.0,87,0.00,,,0.01,,2013-01-25 14:52:00,
2013-01-25 10:02:00,18.0,15.0,30.11,SSW,200,2.0,5.0,87,0.00,,,0.01,,2013-01-25 15:02:00,
2013-01-25 10:12:00,18.0,15.0,30.11,SSW,200,2.0,5.0,87,0.00,,,0.01,,2013-01-25 15:12:00,
2013-01-25 10:22:00,19.0,16.0,30.11,South,182,3.0,6.0,87,0.00,,,0.01,,2013-01-25 15:22:00,
2013-01-25 10:32:00,19.0,16.0,30.10,East,84,4.0,7.0,86,0.00,,,0.01,,2013-01-25 15:32:00,
2013-01-25 10:42:00,19.0,16.0,30.10,East,84,4.0,7.0,86,0.00,,,0.01,,2013-01-25 15:42:00,
2013-01-25 10:52:00,20.0,16.0,30.10,SSW,202,3.0,6.0,86,0.00,,,0.01,,2013-01-25 15:52:00,
2013-01-25 11:03:00,20.0,16.0,30.09,South,189,4.0,8.0,84,0.00,,,0.01,,2013-01-25 16:03:00,
2013-01-25 11:12:00,20.0,16.0,30.09,South,189,4.0,8.0,84,0.00,,,0.01,,2013-01-25 16:12:00,
2013-01-25 11:23:00,20.0,16.0,30.10,SE,129,5.0,8.0,85,0.00,,,0.01,,2013-01-25 16:23:00,
2013-01-25 11:33:00,21.0,17.0,30.09,SE,140,3.0,9.0,84,0.00,,,0.01,,2013-01-25 16:33:00,
2013-01-25 11:43:00,21.0,17.0,30.09,SE,140,3.0,9.0,84,0.00,,,0.01,,2013-01-25 16:43:00,
2013-01-25 11:53:00,21.0,17.0,30.09,SSW,213,6.0,9.0,83,0.00,,,0.01,,2013-01-25 16:53:00,
2013-01-25 12:03:00,21.0,16.0,30.08,South,188,6.0,11.0,82,0.00,,,0.01,,2013-01-25 17:03:00,
2013-01-25 12:12:00,21.0,16.0,30.08,South,188,6.0,11.0,82,0.00,,,0.01,,2013-01-25 17:12:00,
2013-01-25 12:22:00,22.0,17.0,30.07,SSW,211,5.0,8.0,82,0.00,,,0.01,,2013-01-25 17:22:00,
2013-01-25 12:33:00,22.0,18.0,30.07,SW,215,6.0,10.0,83,0.00,,,0.01,,2013-01-25 17:33:00,
2013-01-25 12:43:00,22.0,18.0,30.07,SW,215,6.0,10.0,83,0.00,,,0.01,,2013-01-25 17:43:00,
2013-01-25 12:52:00,22.0,16.0,30.05,SW,215,6.0,10.0,79,0.00,,,0.01,,2013-01-25 17:52:00,
2013-01-25 13:03:00,22.0,17.0,30.03,SSW,203,6.0,11.0,81,0.00,,,0.01,,2013-01-25 18:03:00,
2013-01-25 13:12:00,22.0,17.0,30.03,SSW,203,6.0,11.0,81,0.00,,,0.01,,2013-01-25 18:12:00,
2013-01-25 13:23:00,22.0,17.0,30.02,SW,233,6.0,11.0,80,0.00,,,0.01,,2013-01-25 18:23:00,
2013-01-25 13:33:00,22.0,17.0,30.01,SSW,211,6.0,11.0,81,0.00,,,0.01,,2013-01-25 18:33:00,
2013-01-25 13:42:00,22.0,17.0,30.01,SSW,211,6.0,11.0,81,0.00,,,0.01,,2013-01-25 18:42:00,
2013-01-25 13:52:00,23.0,18.0,30.01,West,263,4.0,10.0,81,0.00,,,0.01,,2013-01-25 18:52:00,
2013-01-25 14:03:00,22.0,17.0,30.00,SW,219,7.0,11.0,80,0.00,,,0.01,,2013-01-25 19:03:00,
2013-01-25 14:12:00,22.0,17.0,30.00,SW,219,7.0,11.0,80,0.00,,,0.01,,2013-01-25 19:12:00,
2013-01-25 14:22:00,23.0,18.0,29.99,SSW,209,6.0,9.0,81,0.00,,,0.01,,2013-01-25 19:22:00,
2013-01-25 14:33:00,23.0,18.0,29.98,SW,225,4.0,8.0,82,0.00,,,0.01,,2013-01-25 19:33:00,
2013-01-25 14:42:00,23.0,18.0,29.98,SW,225,4.0,8.0,82,0.00,,,0.01,,2013-01-25 19:42:00,
2013-01-25 14:53:00,23.0,18.0,29.98,SW,216,4.0,9.0,81,0.00,,,0.01,,2013-01-25 19:53:00,
2013-01-25 15:03:00,23.0,18.0,29.97,WSW,251,5.0,9.0,81,0.00,,,0.01,,2013-01-25 20:03:00,
2013-01-25 15:12:00,23.0,18.0,29.97,WSW,251,5.0,9.0,81,0.00,,,0.01,,2013-01-25 20:12:00,
2013-01-25 15:23:00,23.0,18.0,29.98,SW,223,4.0,8.0,81,0.00,,,0.00,,2013-01-25 20:23:00,
2013-01-25 15:32:00,23.0,18.0,29.98,SW,223,4.0,8.0,81,0.00,,,0.00,,2013-01-25 20:32:00,
2013-01-25 15:42:00,23.0,18.0,29.98,SW,223,4.0,8.0,81,0.00,,,0.00,,2013-01-25 20:42:00,
2013-01-25 15:52:00,23.0,18.0,29.97,SW,236,4.0,9.0,81,0.00,,,0.00,,2013-01-25 20:52:00,
2013-01-25 16:02:00,23.0,18.0,29.98,SW,215,5.0,8.0,81,0.00,,,0.00,,2013-01-25 21:02:00,
2013-01-25 16:12:00,23.0,18.0,29.98,SW,215,5.0,8.0,81,0.00,,,0.00,,2013-01-25 21:12:00,
2013-01-25 16:23:00,23.0,18.0,29.98,WSW,252,5.0,8.0,81,0.00,,,0.00,,2013-01-25 21:23:00,
2013-01-25 16:33:00,23.0,18.0,29.98,SSW,200,5.0,8.0,82,0.00,,,0.00,,2013-01-25 21:33:00,
2013-01-25 16:42:00,23.0,18.0,29.98,SSW,200,5.0,8.0,82,0.00,,,0.00,,2013-01-25 21:42:00,
2013-01-25 16:52:00,23.0,19.0,29.98,SW,217,5.0,10.0,83,0.00,,,0.00,,2013-01-25 21:52:00,
2013-01-25 17:03:00,23.0,18.0,29.98,SW,230,6.0,9.0,82,0.00,,,0.00,,2013-01-25 22:03:00,
2013-01-25 17:12:00,23.0,18.0,29.98,SW,230,6.0,9.0,82,0.00,,,0.00,,2013-01-25 22:12:00,
2013-01-25 17:22:00,23.0,19.0,29.98,SW,218,4.0,11.0,84,0.00,,,0.00,,2013-01-25 22:22:00,
2013-01-25 17:33:00,23.0,19.0,29.98,WSW,244,4.0,9.0,84,0.00,,,0.00,,2013-01-25 22:33:00,
2013-01-25 17:42:00,23.0,19.0,29.98,WSW,244,4.0,9.0,84,0.00,,,0.00,,2013-01-25 22:42:00,
2013-01-25 17:52:00,23.0,19.0,29.99,West,279,4.0,8.0,84,0.00,,,0.00,,2013-01-25 22:52:00,
2013-01-25 18:02:00,23.0,19.0,29.98,SW,221,4.0,7.0,86,0.00,,,0.00,,2013-01-25 23:02:00,
2013-01-25 18:12:00,23.0,19.0,29.98,SW,221,4.0,7.0,86,0.00,,,0.00,,2013-01-25 23:12:00,
2013-01-25 18:22:00,23.0,19.0,29.99,SW,233,3.0,6.0,86,0.00,,,0.00,,2013-01-25 23:22:00,
2013-01-25 18:32:00,23.0,20.0,29.99,SW,229,3.0,6.0,88,0.00,,,0.00,,2013-01-25 23:32:00,
2013-01-25 18:42:00,23.0,20.0,29.99,SW,229,3.0,6.0,88,0.00,,,0.00,,2013-01-25 23:42:00,
2013-01-25 18:52:00,23.0,20.0,29.99,WSW,240,4.0,7.0,88,0.00,,,0.00,,2013-01-25 23:52:00,
2013-01-25 19:02:00,23.0,20.0,30.00,WSW,240,5.0,8.0,88,0.00,,,0.00,,2013-01-26 00:02:00,
2013-01-25 19:12:00,23.0,20.0,30.00,WSW,240,5.0,8.0,88,0.00,,,0.00,,2013-01-26 00:12:00,
2013-01-25 19:22:00,23.0,20.0,30.00,WSW,257,3.0,9.0,89,0.00,,,0.00,,2013-01-26 00:22:00,
2013-01-25 19:32:00,23.0,21.0,30.00,WSW,255,3.0,7.0,90,0.00,,,0.00,,2013-01-26 00:32:00,
2013-01-25 19:42:00,23.0,21.0,30.00,WSW,255,3.0,7.0,90,0.00,,,0.00,,2013-01-26 00:42:00,
2013-01-25 19:53:00,23.0,21.0,30.01,SW,234,5.0,8.0,90,0.00,,,0.00,,2013-01-26 00:53:00,
2013-01-25 20:02:00,23.0,21.0,30.01,SW,231,4.0,7.0,90,0.00,,,0.00,,2013-01-26 01:02:00,
2013-01-25 20:12:00,23.0,21.0,30.01,SW,231,4.0,7.0,90,0.00,,,0.00,,2013-01-26 01:12:00,
2013-01-25 20:22:00,23.0,21.0,30.00,WSW,240,4.0,6.0,90,0.00,,,0.00,,2013-01-26 01:22:00,
2013-01-25 20:32:00,23.0,21.0,30.00,SW,228,4.0,7.0,90,0.00,,,0.00,,2013-01-26 01:32:00,
2013-01-25 20:42:00,23.0,21.0,30.00,SW,228,4.0,7.0,90,0.00,,,0.00,,2013-01-26 01:42:00,
2013-01-25 20:52:00,23.0,21.0,30.00,WSW,244,4.0,7.0,90,0.00,,,0.00,,2013-01-26 01:52:00,
2013-01-25 21:02:00,24.0,22.0,30.00,SW,220,5.0,7.0,90,0.00,,,0.00,,2013-01-26 02:02:00,
2013-01-25 21:11:00,24.0,22.0,30.00,SW,220,5.0,7.0,90,0.00,,,0.00,,2013-01-26 02:11:00,
2013-01-25 21:22:00,24.0,21.0,30.00,WSW,244,4.0,7.0,89,0.00,,,0.00,,2013-01-26 02:22:00,
2013-01-25 21:32:00,24.0,21.0,30.00,SW,234,2.0,5.0,89,0.00,,,0.00,,2013-01-26 02:32:00,
2013-01-25 21:42:00,24.0,21.0,30.00,SW,234,2.0,5.0,89,0.00,,,0.00,,2013-01-26 02:42:00,
2013-01-25 21:52:00,24.0,21.0,30.01,SW,227,3.0,4.0,89,0.00,,,0.00,,2013-01-26 02:52:00,
2013-01-25 22:02:00,24.0,21.0,30.01,SW,233,3.0,4.0,89,0.00,,,0.00,,2013-01-26 03:02:00,
2013-01-25 22:12:00,24.0,21.0,30.01,SW,233,3.0,4.0,89,0.00,,,0.00,,2013-01-26 03:12:00,
2013-01-25 22:22:00,24.0,21.0,30.01,SW,215,2.0,3.0,89,0.00,,,0.00,,2013-01-26 03:22:00,
2013-01-25 22:32:00,24.0,21.0,30.01,SW,221,2.0,3.0,89,0.00,,,0.00,,2013-01-26 03:32:00,
2013-01-25 22:43:00,24.0,21.0,30.01,SW,221,2.0,3.0,89,0.00,,,0.00,,2013-01-26 03:43:00,
2013-01-25 22:52:00,24.0,21.0,30.01,SW,228,3.0,4.0,89,0.00,,,0.00,,2013-01-26 03:52:00,
2013-01-25 23:02:00,24.0,21.0,30.01,SW,223,2.0,3.0,89,0.00,,,0.00,,2013-01-26 04:02:00,
2013-01-25 23:12:00,24.0,21.0,30.01,SW,223,2.0,3.0,89,0.00,,,0.00,,2013-01-26 04:12:00,
2013-01-25 23:21:00,24.0,21.0,30.01,SW,222,3.0,4.0,89,0.00,,,0.00,,2013-01-26 04:21:00,
2013-01-25 23:32:00,24.0,21.0,30.02,SW,227,2.0,3.0,89,0.00,,,0.00,,2013-01-26 04:32:00,
2013-01-25 23:42:00,24.0,21.0,30.02,SW,227,2.0,3.0,89,0.00,,,0.00,,2013-01-26 04:42:00,
2013-01-25 23:52:00,24.0,21.0,30.02,SW,232,2.0,3.0,89,0.00,,,0.00,,2013-01-26 04:52:00,